Galesburg, IL

9:18 PM CDT on September 25, 2017 (GMT -0500)
Galesburg Municipal

Weather History for KGBG - September, 2012

Change the Weather History Date:

Sunday, September 9, 2012

  Actual Average Record
Temperature  
Mean Temperature 60 °F -  
Max Temperature 71 °F 78 °F 95 °F (1983)
Min Temperature 49 °F 57 °F 42 °F (2008)
Degree Days  
Heating Degree Days 5    
Growing Degree Days 10 (Base 50)    
Moisture  
Dew Point 49 °F    
Average Humidity 71    
Maximum Humidity 96    
Minimum Humidity 41    
Precipitation  
Precipitation 0.00 in - - ()
Sea Level Pressure  
Sea Level Pressure 30.08 in    
Wind  
Wind Speed 7 mph (NNW)    
Max Wind Speed 14 mph    
Max Gust Speed 20 mph    
Visibility 10 miles    
Events      
Averages and records for this station are not official NWS values.
T = Trace of Precipitation, MM = Missing Value Source: NWS Daily Summary

Daily Weather History Graph

Daily Weather History Graph

Search for Another Location

Airport or City:

Trip Planner

Search our weather history database for the weather conditions in past years. The results will help you decide how hot, cold, wet, or windy it might be!

Date:

Astronomy

Sep. 09, 2012 Rise Set
Actual Time 6:36 AM CDT 7:20 PM CDT
Civil Twilight 6:09 AM CDT 7:47 PM CDT
Nautical Twilight 5:36 AM CDT 8:20 PM CDT
Astronomical Twilight 5:02 AM CDT 8:54 PM CDT
Moon 12:04 AM CDT (9/9) 3:07 PM CDT (9/9)
Length of Visible Light 13h 38m
Length of Day
12h 43m
Last Quarter, 39% of the Moon is Illuminated
Sep 9
Last Quarter
Sep 15
New
Sep 22
First Quarter
Sep 29
Full
Oct 8
Last Quarter

Hourly Weather History & Observations

Time (CDT) Temp. Dew Point Humidity Pressure Visibility Wind Dir Wind Speed Gust Speed Precip Events Conditions
12:15 AM 59.9 °F 49.1 °F 67% 29.91 in 10.0 mi NW 5.8 mph - N/A   Clear
12:35 AM 58.8 °F 48.9 °F 70% 29.93 in 10.0 mi NNW 5.8 mph - N/A   Clear
12:55 AM 58.1 °F 48.2 °F 70% 29.93 in 10.0 mi NNW 6.9 mph - N/A   Clear
1:15 AM 57.4 °F 47.7 °F 70% 29.93 in 10.0 mi NNW 10.4 mph - N/A   Clear
1:35 AM 56.8 °F 47.3 °F 70% 29.93 in 10.0 mi NNW 6.9 mph - N/A   Clear
1:55 AM 55.9 °F 47.1 °F 72% 29.94 in 10.0 mi NNW 8.1 mph - N/A   Clear
2:15 AM 56.3 °F 47.5 °F 72% 29.95 in 10.0 mi NNW 9.2 mph - N/A   Clear
2:35 AM 54.9 °F 47.8 °F 77% 29.95 in 10.0 mi NNW 6.9 mph - N/A   Clear
2:55 AM 53.6 °F 47.8 °F 81% 29.96 in 10.0 mi NW 5.8 mph - N/A   Clear
3:15 AM 53.2 °F 48.0 °F 82% 29.96 in 10.0 mi NNW 5.8 mph - N/A   Clear
3:35 AM 53.1 °F 48.2 °F 84% 29.96 in 10.0 mi NW 6.9 mph - N/A   Clear
3:55 AM 52.2 °F 47.8 °F 85% 29.97 in 10.0 mi NW 5.8 mph - N/A   Clear
4:15 AM 51.4 °F 47.8 °F 87% 29.98 in 10.0 mi NW 5.8 mph - N/A   Clear
4:35 AM 51.3 °F 47.8 °F 88% 29.98 in 10.0 mi NW 6.9 mph - N/A   Clear
4:55 AM 51.4 °F 48.2 °F 89% 30.00 in 10.0 mi NW 5.8 mph - N/A   Clear
5:15 AM 50.9 °F 48.2 °F 90% 30.00 in 10.0 mi NW 5.8 mph - N/A   Clear
5:35 AM 50.9 °F 48.2 °F 90% 30.01 in 10.0 mi NW 5.8 mph - N/A   Clear
5:55 AM 50.2 °F 47.5 °F 90% 30.02 in 10.0 mi NW 4.6 mph - N/A   Clear
6:15 AM 50.0 °F 47.3 °F 90% 30.02 in 10.0 mi NW 4.6 mph - N/A   Clear
6:35 AM 49.6 °F 47.3 °F 92% 30.03 in 10.0 mi NW 4.6 mph - N/A   Clear
6:55 AM 49.6 °F 47.5 °F 92% 30.04 in 10.0 mi NNW 5.8 mph - N/A   Clear
7:15 AM 50.0 °F 48.2 °F 94% 30.05 in 10.0 mi NW 6.9 mph - N/A   Clear
7:35 AM 51.8 °F 48.7 °F 89% 30.07 in 10.0 mi NW 5.8 mph - N/A   Clear
7:55 AM 52.7 °F 49.3 °F 88% 30.07 in 10.0 mi NW 8.1 mph - N/A   Clear
8:15 AM 54.5 °F 50.2 °F 85% 30.08 in 10.0 mi NNW 8.1 mph - N/A   Clear
8:35 AM 55.8 °F 50.7 °F 83% 30.09 in 10.0 mi North 12.7 mph 18.4 mph N/A   Scattered Clouds
8:55 AM 57.2 °F 51.8 °F 82% 30.09 in 10.0 mi North 13.8 mph 19.6 mph N/A   Mostly Cloudy
9:15 AM 57.9 °F 51.3 °F 78% 30.10 in 10.0 mi North 10.4 mph - N/A   Scattered Clouds
9:35 AM 59.4 °F 51.8 °F 76% 30.11 in 10.0 mi North 10.4 mph - N/A   Mostly Cloudy
9:55 AM 61.0 °F 52.2 °F 73% 30.11 in 10.0 mi NNE 9.2 mph - N/A   Mostly Cloudy
10:15 AM 62.6 °F 52.0 °F 68% 30.11 in 10.0 mi North 9.2 mph - N/A   Scattered Clouds
10:35 AM 63.7 °F 52.0 °F 66% 30.12 in 10.0 mi North 9.2 mph - N/A   Clear
10:55 AM 64.4 °F 51.8 °F 64% 30.12 in 10.0 mi North 11.5 mph 16.1 mph N/A   Clear
11:15 AM 66.2 °F 52.0 °F 60% 30.12 in 10.0 mi North 13.8 mph 18.4 mph N/A   Clear
11:35 AM 66.6 °F 51.4 °F 58% 30.13 in 10.0 mi NNE 11.5 mph - N/A   Clear
11:55 AM 67.1 °F 51.6 °F 57% 30.13 in 10.0 mi North 12.7 mph 19.6 mph N/A   Clear
12:15 PM 67.6 °F 50.9 °F 55% 30.13 in 10.0 mi North 11.5 mph - N/A   Clear
12:35 PM 68.5 °F 50.9 °F 53% 30.13 in 10.0 mi NE 8.1 mph 17.3 mph N/A   Clear
12:55 PM 68.9 °F 49.5 °F 50% 30.13 in 10.0 mi North 10.4 mph 18.4 mph N/A   Clear
1:15 PM 69.1 °F 48.4 °F 48% 30.13 in 10.0 mi NNW 13.8 mph 18.4 mph N/A   Clear
1:35 PM 70.0 °F 47.7 °F 45% 30.13 in 10.0 mi North 8.1 mph 17.3 mph N/A   Scattered Clouds
1:55 PM 70.0 °F 47.5 °F 45% 30.12 in 10.0 mi North 12.7 mph 18.4 mph N/A   Scattered Clouds
2:15 PM 71.1 °F 48.4 °F 44% 30.12 in 10.0 mi North 6.9 mph 16.1 mph N/A   Scattered Clouds
2:35 PM 70.9 °F 46.2 °F 41% 30.12 in 10.0 mi North 12.7 mph 19.6 mph N/A   Clear
2:55 PM 70.9 °F 46.4 °F 42% 30.12 in 10.0 mi NNE 8.1 mph 19.6 mph N/A   Scattered Clouds
3:15 PM 70.7 °F 46.8 °F 42% 30.12 in 10.0 mi North 9.2 mph - N/A   Scattered Clouds
3:35 PM 71.2 °F 47.7 °F 43% 30.11 in 10.0 mi North 12.7 mph - N/A   Clear
3:55 PM 71.1 °F 46.9 °F 42% 30.11 in 10.0 mi NNW 8.1 mph 11.5 mph N/A   Clear
4:15 PM 71.2 °F 46.8 °F 42% 30.11 in 10.0 mi NNW 12.7 mph - N/A   Clear
4:35 PM 71.2 °F 47.5 °F 43% 30.11 in 10.0 mi North 9.2 mph - N/A   Clear
4:55 PM 71.6 °F 46.4 °F 41% 30.12 in 10.0 mi NNW 8.1 mph 16.1 mph N/A   Clear
5:15 PM 70.9 °F 48.2 °F 44% 30.12 in 10.0 mi NNW 8.1 mph - N/A   Clear
5:35 PM 70.3 °F 47.7 °F 44% 30.12 in 10.0 mi NNW 8.1 mph - N/A   Clear
5:55 PM 70.0 °F 47.1 °F 44% 30.12 in 10.0 mi NNW 8.1 mph - N/A   Clear
6:15 PM 69.3 °F 48.2 °F 47% 30.13 in 10.0 mi NNW 6.9 mph - N/A   Clear
6:35 PM 68.0 °F 48.9 °F 50% 30.13 in 10.0 mi North 6.9 mph - N/A   Clear
6:55 PM 65.8 °F 50.4 °F 57% 30.12 in 10.0 mi North 4.6 mph - N/A   Clear
7:15 PM 63.1 °F 51.4 °F 66% 30.12 in 10.0 mi North 3.5 mph - N/A   Clear
7:35 PM 61.3 °F 52.2 °F 72% 30.13 in 5.0 mi Calm Calm - N/A   Haze
7:55 PM 58.3 °F 52.2 °F 80% 30.13 in 10.0 mi Calm Calm - N/A   Clear
8:15 PM 57.0 °F 52.5 °F 85% 30.14 in 10.0 mi Calm Calm - N/A   Clear
8:35 PM 56.5 °F 52.2 °F 85% 30.14 in 10.0 mi Calm Calm - N/A   Clear
8:55 PM 56.8 °F 51.8 °F 83% 30.15 in 10.0 mi Calm Calm - N/A   Clear
9:15 PM 55.8 °F 51.3 °F 85% 30.15 in 10.0 mi Calm Calm - N/A   Clear
9:35 PM 55.2 °F 51.3 °F 87% 30.16 in 10.0 mi Calm Calm - N/A   Clear
9:55 PM 53.1 °F 50.9 °F 92% 30.16 in 10.0 mi Calm Calm - N/A   Clear
10:15 PM 52.3 °F 50.4 °F 93% 30.16 in 10.0 mi Calm Calm - N/A   Clear
10:35 PM 52.3 °F 50.4 °F 93% 30.16 in 10.0 mi Calm Calm - N/A   Clear
10:55 PM 51.8 °F 50.2 °F 94% 30.16 in 10.0 mi Calm Calm - N/A   Clear
11:15 PM 51.1 °F 50.0 °F 96% 30.16 in 10.0 mi Calm Calm - N/A   Clear
11:35 PM 49.6 °F 48.4 °F 95% 30.17 in 3.0 mi Calm Calm - N/A   Clear
11:55 PM 50.9 °F 49.1 °F 94% 30.17 in 10.0 mi Calm Calm - N/A   Clear